SURCAL 150B

导读 | 豆包AI

SURCAL 150B是美国于1967年5月31日08:00发射的 calibration卫星,归属于美国SURCAL系列校准卫星计划,该系列卫星服务于早期航天测绘与空间测量领域校准任务。作为冷战时期美国航天技术探索的产物,它的发射印证了美国在20世纪60年代军用航天系统从试验走向实用化的发展进程,为后续美国各类高精度航天测量系统发展积累了技术基础。

Basic Information
目录编号:
2909
目录名称:
SURCAL 150B
国际标识:
1967-053J
轨道中心:
EARTH
卫星名称:
SURCAL 150B
卫星全名:
--
卫星状态:
已陨落 最后检测时间 2025-10-17
发射日期:
1967-05-31 UTC
国别 :
美国 (US)
星等 :
--
Orbit Information
数据来源 国际轨道数据
星历时间: 2025-10-17T20:45:28+0800
轨道信息已过期194天
半长轴: 6572.214km
偏心率: 0.0010634
轨道倾角: 69.882°
近地点辐角 253.526°
升交点赤经 134.172°
平近点角 106.479°
近地点: 187.09km
远地点: 201.068km
周期: 88.375分钟
每日圈数: 16.294282
Detailed Information
使用方式:
暂无